CAPE
2 2 2 3 5 3 2 0 0 0 1 0 0 0 0 0 0 0 0 1 0 0 0 0 0 0 0 0 0 0 0 0 0 0 0 0 40 53 91 56 174 63 210 167 228 157 145 327 393 222 594 424 158 52
3 3 2 2 3 3 2 0 0 0 2 0 0 0 0 0 0 0 0 1 0 0 0 0 0 0 0 0 0 0 0 0 0 0 45 31 33 50 51 38 110 162 131 121 193 228 441 447 599 612 560 88 83 324
8 5 2 2 2 3 1 0 0 0 2 1 0 0 0 0 1 2 2 6 1 0 0 0 0 0 0 0 0 0 0 0 0 0 0 16 35 21 54 161 212 102 267 214 138 362 395 491 436 545 178 392 276 304
11 8 4 2 2 1 2 0 0 0 2 0 0 0 0 0 2 3 11 12 0 0 0 1 0 0 0 0 0 0 0 0 0 0 0 0 10 36 5 7 20 97 95 160 20 68 318 479 369 396 285 182 88 83
11 8 6 2 1 1 3 0 0 0 2 0 0 0 0 0 0 8 23 0 12 4 0 2 0 0 0 0 0 0 0 0 0 0 0 0 0 0 1 7 35 151 171 77 17 361 420 316 126 183 13 225 178 20
23 19 5 4 2 1 3 0 0 0 1 0 0 0 0 5 0 1 17 9 19 0 7 0 2 0 0 0 0 0 0 0 0 0 0 0 0 0 0 3 72 211 146 38 1 351 372 23 0 0 24 42 27 0
27 26 10 4 2 2 2 0 0 1 1 0 0 0 6 0 3 9 10 0 1 7 7 1 1 0 0 0 0 0 0 0 0 0 0 0 0 0 0 0 0 0 38 26 13 722 377 713 213 1 19 81 16 49
19 15 3 3 1 1 1 0 0 1 0 0 1 0 0 1 1 8 21 0 0 15 13 3 0 0 0 0 0 0 0 0 0 0 0 0 0 0 0 0 0 0 0 13 96 780 424 115 474 205 186 39 40 56
23 14 5 3 2 1 0 0 1 0 0 0 0 3 1 1 18 14 0 0 0 6 2 2 0 32 0 5 4 0 0 0 0 0 0 0 6 7 14 20 2 49 61 429 495 629 353 232 272 255 141 84 71 95
20 15 15 9 3 1 0 0 1 0 9 0 27 5 5 16 0 0 1 16 2 24 20 0 1 0 0 2 10 2 0 0 17 2 3 27 8 238 585 655 604 185 76 250 530 250 348 317 275 495 243 124 94 124
22 20 16 7 1 0 0 2 0 11 27 26 33 7 0 0 4 0 5 10 12 14 3 0 0 2 0 3 18 33 45 31 29 38 14 27 185 570 866 745 755 656 412 109 600 632 319 299 159 648 202 117 209 248
18 15 10 4 1 0 1 0 3 27 22 17 9 6 4 36 23 13 8 8 5 4 0 0 0 0 2 0 4 31 34 87 77 0 60 126 153 323 961 875 861 454 105 155 255 641 319 308 119 116 152 251 396 466
9 2 3 3 0 0 0 0 4 5 15 2 14 13 27 26 8 8 6 3 7 0 4 0 5 2 0 0 1 28 129 37 61 147 191 306 371 689 810 838 1029 876 735 636 460 407 469 311 337 401 543 527 498 322
7 6 3 0 1 1 0 0 8 0 0 1 10 7 13 5 4 3 7 7 41 42 43 56 38 7 0 0 18 33 32 53 4 49 17 264 623 726 737 673 786 955 769 668 536 453 428 491 568 493 387 270 55 0
5 0 0 2 1 2 11 10 0 21 8 15 15 1 1 0 14 17 21 31 22 51 70 46 68 38 3 24 27 49 43 26 90 152 180 198 395 439 620 538 616 537 486 362 287 243 197 134 78 20 3 2 2 14
0 3 1 1 9 20 15 24 28 6 3 6 14 12 14 19 15 25 19 53 62 86 72 118 52 37 21 37 97 42 37 65 80 100 125 416 271 251 155 109 283 334 211 66 150 59 20 26 30 42 36 27 34 24
0 4 2 0 0 0 0 16 7 5 5 17 13 30 50 36 33 25 76 54 76 62 38 60 32 17 29 40 97 26 111 11 99 49 106 347 344 224 232 138 242 72 35 22 61 75 75 59 55 55 54 38 45 25
1 0 4 1 9 9 0 0 0 5 12 11 16 39 24 17 43 50 83 106 120 29 44 116 53 16 50 43 75 59 70 35 30 35 24 215 210 150 121 59 115 6 2 4 7 98 75 138 106 46 52 132 94 23
4 0 26 9 5 0 2 0 0 12 8 35 17 41 39 33 11 28 72 113 123 123 81 96 101 70 132 61 24 17 15 12 9 13 99 355 81 8 7 18 31 52 86 65 123 97 80 78 70 56 33 39 41 20
0 1 9 0 0 19 10 14 2 11 7 24 15 33 31 14 29 65 55 86 89 76 76 69 60 75 21 6 0 2 24 15 14 50 203 72 39 29 34 65 44 8 28 25 54 89 70 84 4 17 25 22 13 27
10 0 0 0 17 4 9 9 8 3 0 20 21 22 11 35 50 40 29 46 65 85 52 59 14 110 102 57 11 44 177 128 228 213 144 22 18 52 3 2 6 42 6 18 23 51 27 7 13 24 38 40 31 33
6 7 2 0 14 8 15 0 2 0 6 8 2 17 14 19 20 29 33 29 26 51 64 76 51 68 14 107 107 157 224 228 237 217 91 14 9 1 3 11 27 171 94 47 51 30 32 35 29 28 40 41 41 11
0 0 11 4 1 0 0 12 6 5 6 10 7 15 18 18 26 26 17 29 18 106 91 40 100 125 74 82 97 115 156 250 106 257 236 124 33 2 17 90 87 83 44 23 7 17 35 31 31 34 29 35 45 38
0 11 7 6 0 0 2 9 12 17 16 16 11 10 14 22 30 22 17 24 35 59 57 106 59 20 76 115 28 93 126 115 48 28 24 16 10 32 202 66 56 55 48 45 45 13 52 29 27 35 12 33 73 36
0 0 0 0 2 6 7 10 9 10 7 10 11 6 24 19 18 11 18 46 14 3 8 130 84 40 45 70 86 196 250 283 24 60 82 80 46 6 27 14 8 3 9 17 9 18 26 35 28 49 37 44 54 101
0 0 2 8 5 7 10 8 9 6 12 10 12 29 22 6 0 0 0 0 0 2 4 60 150 121 270 281 279 209 254 189 163 236 83 14 4 10 9 4 8 2 0 6 2 2 9 10 10 10 22 33 41 115
1 5 8 4 15 16 11 7 10 8 12 17 21 10 0 1 1 0 7 33 18 54 191 266 100 91 146 173 183 200 225 264 218 180 35 18 11 6 8 4 0 0 0 0 0 0 0 0 1 3 7 18 18 18
8 13 8 15 23 15 10 9 14 12 8 13 10 1 1 1 1 9 104 257 171 171 99 62 91 109 145 169 206 77 161 156 199 84 49 13 6 0 0 0 0 0 0 0 0 0 0 0 0 0 0 0 1 1
14 16 17 16 18 20 9 15 8 7 5 0 0 2 3 1 1 4 19 12 84 329 140 19 49 25 0 0 0 1 0 0 2 2 10 8 1 0 0 0 0 0 0 0 0 0 0 0 0 0 0 0 0 0
10 4 10 6 9 6 15 9 3 5 2 2 1 1 1 0 0 0 55 64 117 169 81 21 1 0 0 3 0 0 1 0 0 0 0 0 0 0 0 0 0 0 0 0 0 0 0 0 0 0 0 0 0 0
4 6 9 16 5 8 0 0 4 2 0 0 0 0 0 0 0 0 1 0 2 12 7 10 11 6 7 6 0 2 1 0 0 0 0 0 0 0 0 0 0 0 0 0 0 0 0 0 0 0 0 0 0 0
0 0 6 3 4 0 0 0 6 16 3 1 2 0 0 5 4 0 0 6 9 12 0 4 5 0 0 0 0 0 0 0 0 0 0 0 0 0 0 0 0 0 0 0 0 0 0 0 0 0 0 0 0 0
5 8 2 5 2 6 15 9 7 12 21 34 25 9 1 0 6 8 5 1 1 1 1 0 0 0 0 0 0 0 0 0 0 0 0 0 0 0 0 0 0 0 0 0 0 0 0 0 0 0 0 0 0 0
CIN
-10 -7 -5 -3 -3 0 0 0 0 0 0 0 0 0 0 0 0 0 0 0 0 0 0 0 0 0 0 0 0 0 0 0 0 0 0 0 -5 -2 -35 -3 -4 -3 -3 -3 -2 -2 -5 -27 -14 -13 -3 -3 -22 -66
-8 -10 -8 -7 -4 -1 0 0 0 0 0 0 0 0 0 0 0 0 0 -1 0 0 0 0 0 0 0 0 0 0 0 0 0 0 -6 -4 -3 -6 -3 -4 -49 -4 -3 -5 -4 -4 -2 -3 -3 -13 -7 -34 -50 -27
-9 -11 -11 -9 -6 -6 -1 0 0 0 0 0 0 0 0 0 0 -14 -1 -2 -1 0 0 0 0 0 0 0 0 0 0 0 0 0 0 -5 -2 -4 -6 -2 -20 -5 -4 -2 -5 -2 -2 -6 -12 -3 -27 -1 -9 -3
-6 -11 -13 -12 -7 -6 -2 -2 0 0 0 0 0 0 0 0 -3 -20 -1 -1 -1 0 0 -1 0 0 0 0 0 0 0 0 0 0 0 0 -3 -3 -3 -22 -9 -8 -4 -8 -3 -37 -2 -2 -20 -19 -47 -9 -11 -8
-5 -10 -14 -12 -11 -5 -4 -1 0 0 0 0 0 0 0 0 0 -6 0 0 -2 -2 -2 -3 -1 0 0 0 0 0 0 0 0 0 0 0 0 0 -3 -5 -3 -4 -28 -3 -6 -4 -4 -4 -19 -12 -19 -9 -7 -41
-2 -6 -12 -17 -11 -6 -4 0 0 0 -19 0 0 0 0 -3 -5 0 0 -2 -2 0 0 0 -2 0 0 0 0 0 0 0 0 0 0 0 0 0 0 -3 -5 -5 -15 -5 -3 -1 -3 -43 0 0 -23 -27 -2 0
-1 -1 -7 -16 -12 -10 -4 0 0 0 0 0 0 0 0 0 -5 -2 -1 0 -3 -1 -1 -1 -1 0 0 0 0 0 0 0 0 0 0 0 0 0 0 0 0 0 -4 -4 -29 -2 -2 -7 -20 -23 -251 -2 -1 -6
-2 -3 -11 -16 -14 -10 -5 0 0 0 0 0 -2 0 -3 -11 -1 -5 -2 0 -1 -2 -1 -2 0 0 0 -1 0 0 0 0 0 0 0 0 0 0 0 0 0 0 0 -6 -18 -4 -2 -14 -2 -2 -9 -2 -2 -2
-4 -4 -5 -12 -12 -10 0 0 0 0 0 0 0 -20 0 0 0 -2 0 0 0 -2 -4 0 0 -3 0 -3 -4 0 0 0 0 0 0 0 -5 -3 -2 -2 -2 -5 -3 -2 -4 -1 -2 -3 -3 -3 -7 -7 -3 -2
-3 -4 -1 -8 -11 -9 0 0 0 0 0 0 0 -7 -1 -1 0 0 0 -3 -12 -1 -1 0 -2 -1 0 -1 -2 -3 0 0 -2 -8 -2 -5 -4 -1 -2 -3 -3 -21 -8 -3 -3 -3 -1 -1 -2 -2 -3 -4 -3 -4
-2 -2 -3 -5 -13 -2 0 0 0 0 0 -1 -1 0 0 0 -1 -1 -1 -1 -2 0 -1 0 0 -3 0 -3 -5 -3 -37 -4 -2 -6 -6 -7 -12 -4 -16 -3 -1 -2 -6 -15 -3 -1 -4 -2 -3 -2 -3 -2 -8 -10
-1 -3 -5 -14 -9 0 0 -1 -3 -1 -2 -2 -10 -7 -3 -1 -1 -1 -2 -2 -2 -3 0 0 0 0 -2 0 -4 -4 -3 -14 -2 0 -14 -4 -17 -13 -1 -2 -2 -3 -21 -19 -83 -2 -3 -3 -2 -3 -3 -4 -1 -1
-3 -8 -14 -10 0 0 0 0 0 -1 -22 -38 -11 -3 0 -1 -5 0 0 -2 -2 0 -2 0 -4 -3 0 0 -4 -3 -1 -4 -9 -6 -5 -2 -12 -1 -6 -17 -2 -1 0 -2 -1 -2 -2 -2 -1 -1 -2 -4 -2 -1
-6 -10 -10 0 0 0 0 0 -4 0 -1 -4 -1 0 -1 -1 -3 -4 -5 -4 -29 -9 -25 -14 -20 -3 -1 0 -5 -1 -5 -14 -1 -2 -16 -1 -1 -4 -1 -1 -4 -2 -1 -1 -1 -2 -1 -1 -1 -3 -11 -13 -4 0
-6 0 0 0 0 -1 0 -4 0 -14 -6 0 -1 -1 -2 -4 -4 -2 -2 -34 -34 -4 -3 -7 -5 -4 -1 -4 -3 -4 -3 -3 -2 -3 -2 -16 -36 -12 -1 -18 -10 -26 -18 -12 -4 -2 -3 -4 -11 -46 -135 -43 -40 -89
-1 0 0 0 -1 -1 -2 -1 0 -5 -8 -1 -1 -1 -2 -3 -4 -2 -6 -4 -14 -22 -6 -3 -8 -4 -2 -5 -4 -3 -3 -4 -2 -2 -2 -8 -18 -15 -30 -43 -29 -23 -47 -76 -32 -10 -30 -19 -10 -20 -37 -26 -1 -1
0 0 0 0 0 0 -8 0 -5 -2 0 0 -1 -1 -1 -1 0 -1 -6 -3 -29 -3 -4 -4 -1 -3 -7 -4 -4 -24 -2 -10 -3 -5 -2 -5 -2 -2 0 -1 0 -15 -17 -25 -15 -2 -1 -5 -6 -2 -9 -28 -4 -2
0 0 -1 -1 -1 0 0 -3 -1 0 0 -2 -1 -1 -1 -4 -2 -1 -11 -2 -5 -3 -45 -17 -3 -3 -3 -5 -6 -5 -4 -6 -4 -2 -2 -2 0 -2 -1 -5 0 -8 -11 -21 -25 -2 -1 -1 -1 -3 -6 -6 -15 -5
0 0 0 -1 -4 -2 -1 0 0 0 -4 -1 -7 -2 -1 -1 -4 -6 -1 -5 -1 -1 -3 -2 -4 -5 -4 -6 -5 -4 -5 -3 -3 -3 -3 0 0 -6 -5 0 0 -9 -4 -10 -13 -7 -1 -10 -12 -7 -3 -2 -2 -3
0 -4 -12 -6 0 -2 -1 -1 -1 -2 -3 -2 -2 -1 -1 -7 -3 -2 -2 -1 -2 -2 -2 -4 -6 -3 -10 -7 0 -2 -2 -1 -1 -2 -1 -1 -3 -10 -11 -5 -9 -17 -14 -16 -20 -24 -8 -22 -37 -17 -4 -2 -3 -5
-1 -2 0 0 -3 -2 0 -3 -2 -1 0 -3 -2 -3 0 -3 -2 -3 -6 -2 -2 -2 -4 -4 -14 -3 -17 -18 -11 -4 -1 -2 0 -1 -1 -2 -5 -4 -8 -52 -30 -12 -7 -24 -22 -4 -9 -12 -3 -3 -4 -4 -6 -4
-5 -12 -3 0 -2 -1 -1 -1 -2 0 -2 -2 -1 -2 -2 -3 -2 -2 -2 -2 -2 -2 -4 -4 -3 -4 -3 -5 -9 -2 -4 -2 0 -4 -23 -27 -21 -5 -3 -13 -8 -6 -4 -5 -1 -2 -1 -3 -3 -5 -4 -4 -6 -11
0 -7 -2 0 -1 0 0 -8 -1 -1 -2 -2 -2 -2 -1 -2 -2 -2 -2 -2 -7 -2 -4 -3 -3 -13 -13 -5 -20 -2 -1 -1 -1 -2 -1 -3 -10 -25 -39 -15 -1 -1 -5 -15 -12 -3 -2 -10 -2 -6 -4 -4 -3 -5
0 -1 -1 -1 0 0 -1 -1 -1 -1 -1 -2 -4 -3 -2 -1 -1 -1 -4 -4 -3 -4 -3 -1 -1 -1 -2 -20 -6 -1 -1 -2 -1 -1 -9 -23 -24 -23 -2 -2 -2 -2 -3 -5 -15 -12 -3 -10 -17 -5 -18 -5 -2 -4
0 0 -1 0 -1 -1 -2 -2 -1 -2 -4 -2 -3 -4 -3 -1 -3 -2 -3 -6 -3 -1 -2 0 -1 0 -5 -2 -4 -4 -14 -10 -3 -6 -22 -47 -11 -46 -3 -17 -29 -16 -7 -4 -8 -3 -1 -3 -4 -2 -1 -1 -1 -2
0 0 -1 -1 -1 -2 -3 -3 -4 -5 -5 -3 -3 -1 -2 -5 0 0 0 0 -3 0 -4 -1 0 -1 0 -1 -1 -8 -4 -5 -2 -3 -3 -7 -8 -3 -6 -7 -3 -1 0 -3 -2 -1 -2 -2 -6 -7 -3 -11 -26 -4
-1 -1 -1 -2 -1 -2 -2 -3 -3 -2 -4 -5 -2 0 0 0 0 0 -3 -3 -11 -3 -1 -1 -8 -6 -2 -3 -3 -1 -1 -3 -6 -8 -2 -3 -3 -3 -4 -2 0 0 0 0 0 0 0 0 -2 -5 -6 -9 -3 -2
-3 -3 -1 0 -1 -2 -3 -1 -1 -9 -1 -1 -2 0 0 0 0 -11 0 0 -1 -3 -7 -6 -8 -10 -10 -2 -1 -14 -10 -8 -4 -2 -4 -6 -2 0 0 0 0 0 0 0 0 0 0 0 0 0 0 -1 -1 -1
-1 -5 -3 -5 -1 -2 -10 -3 -1 0 -1 0 0 0 0 0 -2 -2 -4 -22 -29 -6 -8 -21 -2 -4 0 0 0 -19 -2 0 -8 -9 -3 -2 -1 0 0 0 0 0 0 0 0 0 0 0 0 0 0 0 0 0
-1 -11 -2 -2 -1 -1 0 0 0 0 0 0 0 0 -1 0 0 0 -5 -14 -9 -3 -5 -4 -3 0 0 -1 -3 -1 -1 0 0 0 0 0 0 0 0 0 0 0 0 0 0 0 0 0 0 0 0 0 0 0
-1 0 0 0 0 -1 0 -1 0 0 0 0 0 0 0 0 -2 0 -2 0 -16 -2 -2 -2 -2 -3 -2 -2 0 -1 -1 0 0 0 0 0 0 0 0 0 0 0 0 0 0 0 0 0 0 0 0 0 0 0
0 -2 0 0 0 0 0 0 -5 -2 -3 -8 -2 -3 -1 -4 -1 0 0 -3 -3 -2 0 -3 -1 -3 0 -1 0 0 0 0 0 0 0 0 0 0 0 0 0 0 0 0 0 0 0 0 0 0 0 0 0 0
-3 -3 0 -1 0 -2 -1 -1 -1 -3 -1 -1 -2 -3 -1 0 0 -1 -2 -2 -2 -3 -1 -1 0 0 0 0 0 0 0 0 0 0 0 0 0 0 0 0 0 0 0 0 0 0 0 0 0 0 0 0 0 0
Wind_Speed
33 32 31 30 29 29 30 30 29 29 23 22 22 22 21 19 18 17 20 18 22 27 31 29 27 27 25 23 24 21 25 16 21 21 22 23 22 20 19 17 17 23 22 25 26 29 25 30 28 24 20 23 22 24
32 32 31 31 30 28 29 29 28 28 23 21 22 22 21 19 16 16 22 18 20 23 28 31 28 28 24 25 27 22 24 21 20 19 21 20 21 21 21 23 25 19 21 27 25 26 27 27 23 19 20 21 21 20
31 31 30 29 29 28 28 30 29 29 24 21 21 22 21 18 17 14 21 20 21 26 33 26 25 18 6 16 22 24 23 22 22 22 22 20 19 22 17 19 21 25 21 23 27 23 26 23 21 21 18 18 16 16
30 30 30 30 29 29 29 28 29 29 26 21 20 21 21 19 14 14 19 19 20 24 23 18 16 16 11 12 12 14 20 22 24 23 23 22 22 16 23 21 25 18 24 24 23 25 28 22 20 19 21 13 15 19
29 29 29 30 29 29 28 29 29 29 24 21 20 20 20 16 12 15 21 21 21 20 21 24 26 17 17 19 18 16 17 18 21 18 18 19 24 27 24 26 25 17 19 24 26 26 25 23 20 16 16 18 14 16
29 29 29 29 29 29 28 28 28 28 21 20 20 19 16 12 8 14 20 12 15 15 20 19 13 15 13 17 18 11 13 15 19 23 21 23 27 23 23 26 14 11 5 23 24 23 19 17 19 20 13 15 15 19
30 29 29 29 29 29 28 27 27 26 18 18 18 16 13 7 10 18 18 17 13 10 17 19 17 11 15 15 9 10 12 16 18 20 22 24 25 14 25 28 28 29 27 25 22 17 16 10 12 10 13 14 18 19
33 32 31 30 29 29 26 26 26 20 17 17 15 13 12 8 19 20 17 15 13 16 19 17 18 16 9 16 14 13 14 14 15 20 20 19 20 15 21 20 21 21 18 20 19 12 16 14 10 8 14 17 18 19
33 33 30 29 28 28 26 25 20 15 16 13 9 5 11 16 16 16 11 13 18 20 19 19 23 12 10 20 13 12 12 15 17 13 13 17 15 14 13 18 20 18 18 18 14 12 14 15 19 16 17 16 17 17
34 34 32 31 30 26 24 23 14 13 11 8 11 17 19 13 5 5 12 14 15 18 20 25 24 21 15 11 13 16 10 22 12 8 6 7 7 12 18 22 23 25 22 20 15 12 10 19 14 12 16 16 17 18
33 32 32 29 27 24 23 14 13 11 10 16 18 16 12 2 9 15 15 17 14 18 14 18 24 23 14 19 20 15 19 20 23 11 3 5 7 18 21 20 20 21 10 13 7 9 18 21 20 8 12 11 17 19
31 30 29 25 24 24 15 15 14 14 18 15 12 8 10 15 16 17 16 19 19 18 13 18 16 17 16 17 19 17 22 19 20 17 18 11 16 19 20 18 16 12 8 11 27 15 16 18 17 17 19 20 20 20
27 25 23 22 24 23 14 15 15 18 13 14 17 15 15 15 19 19 15 18 15 15 12 12 9 15 15 18 21 20 21 23 20 17 15 15 16 17 16 15 14 13 13 13 13 13 15 16 16 16 15 17 20 22
22 22 22 25 23 13 19 18 24 22 19 19 19 21 20 19 23 22 20 12 12 12 5 15 12 15 15 13 20 20 25 17 12 17 18 12 12 15 15 14 14 14 14 12 14 15 16 16 17 18 19 21 22 23
24 23 25 22 19 21 19 27 30 25 23 24 21 22 25 24 21 16 13 14 12 15 13 12 16 17 11 16 17 19 20 20 18 15 13 14 15 18 18 19 18 17 15 16 17 19 19 19 20 18 19 19 19 20
20 20 24 20 22 23 26 24 27 20 20 23 21 21 23 24 15 14 8 11 15 14 14 15 17 16 16 14 17 20 20 18 16 15 15 15 17 19 21 22 22 20 22 22 23 22 20 19 18 18 19 20 21 20
21 21 26 26 26 28 25 22 22 21 22 20 20 18 16 15 11 11 11 13 12 20 18 16 15 13 16 17 15 16 17 16 17 20 20 20 22 24 25 25 23 21 23 19 11 15 13 15 18 20 20 22 23 22
22 22 23 28 34 25 18 18 16 21 22 20 17 20 15 16 14 11 12 12 20 20 20 12 16 14 15 15 15 13 14 14 18 21 23 23 24 25 26 22 22 19 16 19 22 17 17 19 20 20 20 20 22 26
26 24 22 24 23 23 22 26 21 21 20 17 16 15 16 14 12 13 14 14 15 15 13 13 14 15 16 14 16 18 20 21 23 23 22 22 23 24 21 18 17 17 17 19 22 22 17 17 19 19 21 22 25 26
25 30 28 25 22 22 21 21 19 19 18 16 15 15 15 9 16 14 14 14 16 16 15 15 14 13 14 16 18 20 22 22 22 22 21 21 22 20 19 17 13 17 18 19 19 23 19 15 14 17 23 26 24 25
23 30 25 21 21 20 19 20 18 16 17 17 14 15 17 18 16 13 15 14 16 16 15 11 12 13 17 19 20 20 20 20 20 21 21 19 20 20 18 14 15 16 14 14 21 21 19 20 22 24 25 25 26 29
27 27 24 21 19 19 18 18 16 17 18 17 19 18 15 18 17 19 16 20 19 16 17 17 18 19 20 18 20 21 21 21 20 19 17 16 17 15 12 14 15 17 18 19 20 21 22 22 22 25 27 28 29 29
26 23 22 20 18 17 19 19 18 17 17 18 16 18 18 18 18 15 19 18 16 14 18 19 20 21 22 21 20 20 20 19 19 19 17 16 14 15 14 16 18 19 20 19 18 24 22 23 24 21 28 31 27 27
17 17 18 19 18 18 20 19 17 16 17 19 19 18 17 16 17 20 20 17 14 16 18 19 20 21 20 19 20 16 18 18 18 17 12 12 14 16 18 18 20 21 22 24 24 26 26 24 19 29 29 27 26 26
17 15 17 17 17 19 18 18 19 20 19 19 19 17 16 18 18 18 17 17 20 20 21 20 19 19 19 16 12 14 14 12 13 10 15 14 17 17 19 20 19 22 25 25 26 26 26 25 28 28 28 26 28 30
15 15 16 17 18 19 20 20 20 19 19 18 18 16 14 12 13 15 14 13 13 15 16 16 14 11 9 8 10 10 11 13 13 13 17 19 20 20 21 22 23 24 27 27 28 29 29 29 31 32 32 32 32 31
16 15 15 16 17 18 18 16 16 18 16 16 16 16 14 15 17 17 15 16 15 14 13 9 7 6 6 7 10 9 12 14 15 10 17 18 20 21 23 24 24 27 28 28 30 31 31 30 28 28 28 27 29 28
16 16 20 20 19 16 18 16 16 16 16 15 15 15 12 14 13 8 9 9 13 13 12 10 7 5 6 7 9 12 11 13 11 16 18 20 20 23 25 25 26 19 23 25 27 27 28 25 25 25 26 27 28 28
18 17 16 20 19 15 15 15 17 16 15 15 17 13 14 15 13 12 10 6 4 10 3 5 6 8 7 8 10 14 15 16 19 19 19 21 22 23 25 26 27 28 28 24 22 25 28 23 24 26 27 27 28 28
19 17 18 16 16 17 14 14 14 14 14 16 18 18 14 13 10 9 9 28 19 6 4 14 16 17 11 14 18 18 17 18 17 15 13 12 14 21 20 17 5 8 22 24 24 27 30 24 24 24 27 28 30 29
20 20 19 17 18 18 18 16 19 23 21 19 18 18 18 16 8 7 9 14 11 19 19 16 14 13 11 11 11 11 11 14 15 16 14 12 13 13 9 4 16 25 25 25 26 28 28 25 26 26 27 28 28 28
22 21 21 23 22 22 24 28 24 25 27 21 19 21 20 18 17 17 10 9 8 9 7 7 7 8 9 9 10 12 13 14 14 15 15 15 16 18 15 27 27 25 25 25 25 26 27 26 27 27 26 27 27 28
28 27 24 22 25 24 26 24 22 21 17 10 11 13 17 15 11 13 10 9 9 9 8 9 9 8 9 10 10 8 21 21 23 24 25 26 28 28 27 27 25 24 24 25 25 25 26 26 27 26 26 26 27 26
Wind_Direction
290 289 290 290 290 292 291 287 283 282 280 279 281 280 283 286 288 292 302 304 296 295 289 295 295 293 294 297 297 310 304 302 302 300 300 302 309 323 325 332 331 318 311 306 302 292 301 312 298 302 310 330 337 338
287 288 287 287 287 288 289 285 281 278 276 276 277 276 278 278 283 288 293 305 304 297 290 298 298 295 294 293 291 299 297 304 313 307 310 312 308 315 321 317 306 311 308 297 305 303 314 312 311 322 318 321 329 325
285 285 285 285 286 285 286 282 276 273 271 271 272 272 274 273 276 283 289 302 303 298 295 296 296 312 287 291 286 290 293 300 296 297 300 308 310 309 324 323 307 305 310 305 297 312 313 323 315 317 318 320 353 342
283 282 282 282 281 281 281 279 272 269 266 266 267 267 271 271 277 281 290 300 302 303 305 317 328 317 321 315 308 298 286 298 289 291 288 292 297 322 303 316 306 318 301 299 307 312 312 324 318 305 299 352 352 349
279 279 279 278 277 276 275 275 267 265 262 261 263 264 270 271 276 283 286 289 296 299 304 301 303 311 313 305 300 295 288 285 288 292 292 291 288 289 303 298 300 323 309 299 301 315 322 318 308 317 268 280 336 337
276 275 275 273 272 271 270 269 262 260 258 258 259 263 266 264 275 286 291 300 296 304 308 309 331 321 323 308 300 294 293 286 280 280 288 286 280 297 301 289 338 340 0 317 310 322 342 354 319 297 347 324 349 341
270 270 269 267 265 265 264 263 257 255 254 254 257 258 256 256 266 279 292 300 306 307 310 314 321 332 306 305 311 299 294 288 285 286 285 285 285 308 292 291 297 284 294 308 307 324 346 19 348 112 244 335 353 351
259 258 260 260 258 258 259 257 252 248 248 248 252 250 258 259 268 276 289 298 296 298 300 311 309 307 319 286 293 295 293 291 294 286 294 298 295 306 301 311 317 308 317 304 293 333 339 351 5 343 1 353 358 354
251 250 253 253 253 251 251 249 247 240 238 236 237 238 261 264 272 285 301 298 284 283 292 291 269 320 315 271 302 302 298 294 297 303 304 297 303 307 318 314 311 315 316 308 300 316 329 325 282 312 323 333 344 350
241 240 241 240 241 246 244 241 233 222 212 188 235 250 257 267 317 340 297 297 297 285 282 271 270 274 290 301 293 281 314 271 310 332 345 314 319 329 315 304 301 286 297 290 290 309 336 296 341 356 320 319 318 288
238 237 236 238 238 239 235 228 207 185 186 230 238 254 267 184 285 276 287 283 293 288 295 281 258 259 292 266 266 288 283 283 272 315 21 359 333 320 309 308 309 290 321 307 263 332 301 287 298 16 350 13 289 301
237 236 236 239 240 229 226 200 179 199 219 234 247 265 257 258 269 273 279 273 274 279 293 257 269 263 285 277 266 284 267 286 284 307 229 320 320 294 326 321 309 324 348 317 250 321 315 306 310 308 288 286 286 305
234 236 237 237 226 221 179 192 168 217 216 222 240 243 252 257 256 262 273 264 287 282 276 277 292 271 282 266 262 271 268 261 292 293 311 323 327 338 335 316 321 336 326 316 309 326 323 327 328 322 320 311 309 315
230 230 226 218 213 191 201 197 202 208 218 230 232 232 245 250 245 247 253 282 283 273 291 255 276 266 276 279 257 267 249 299 172 300 307 334 339 339 335 340 332 321 327 329 319 317 324 321 321 313 313 318 319 322
214 209 208 204 202 199 191 196 198 209 218 218 231 238 232 230 243 257 268 269 264 252 260 266 265 260 284 268 270 270 260 270 294 313 332 334 329 310 310 306 311 316 306 300 299 303 299 305 306 319 328 332 339 341
196 193 201 192 192 189 188 196 207 219 229 217 231 234 228 226 250 258 276 262 240 255 254 265 248 260 265 281 265 259 273 288 303 327 341 332 317 317 305 292 303 308 302 296 295 294 295 308 319 328 329 334 335 341
190 197 186 181 179 182 194 203 207 220 219 224 227 237 239 240 255 258 253 243 267 228 243 256 259 278 272 269 287 293 289 309 317 307 316 320 310 301 291 294 310 314 310 308 334 296 321 325 323 323 328 329 330 333
187 176 175 179 175 189 204 208 220 218 214 226 227 217 229 231 239 250 256 267 221 184 203 291 265 267 275 286 303 321 341 356 331 323 316 316 313 304 289 309 307 318 332 288 286 294 302 302 313 320 333 339 337 327
173 174 173 182 192 187 191 197 204 204 213 218 221 224 227 237 252 250 254 259 269 271 287 296 290 287 282 309 313 314 314 315 309 311 321 327 323 316 308 312 306 311 301 274 270 269 309 323 324 329 328 337 329 333
169 171 175 180 195 194 196 200 213 214 214 223 225 224 230 256 239 253 267 269 266 269 281 286 292 304 310 318 307 302 307 307 305 310 320 330 335 318 306 317 334 297 308 293 297 270 319 340 355 345 332 326 337 338
172 181 185 193 201 203 204 202 211 218 213 221 232 231 233 233 246 267 258 272 260 266 278 317 321 335 308 303 300 304 309 310 310 313 312 328 323 307 304 317 298 310 4 7 263 306 322 335 331 333 336 337 339 335
170 177 185 194 197 205 210 214 214 212 216 223 218 227 242 238 242 243 263 239 257 279 286 296 304 304 301 307 299 304 309 299 321 329 354 334 328 316 310 281 281 291 295 314 322 329 331 337 341 334 332 330 332 336
167 184 190 198 200 206 205 211 211 219 215 218 229 226 230 234 239 261 237 255 275 301 299 308 308 302 283 283 294 303 312 320 322 334 329 292 320 322 234 302 312 344 345 351 346 331 342 345 339 348 335 331 341 344
192 190 192 194 198 197 199 206 214 217 210 207 212 215 225 241 237 211 219 242 308 327 302 271 245 249 254 267 264 314 325 313 325 337 306 278 27 292 328 356 341 354 344 344 338 337 339 352 2 340 340 343 346 344
190 195 193 192 203 198 201 201 202 199 203 203 203 211 221 202 204 205 198 285 281 268 252 239 223 226 244 278 321 331 296 292 8 226 204 141 46 38 354 3 3 332 348 350 351 351 354 356 350 349 348 350 344 340
194 199 197 195 192 190 187 190 193 195 195 195 195 197 205 223 237 205 193 185 227 248 238 234 242 267 302 305 7 303 253 10 342 323 339 360 354 348 350 343 343 351 343 349 345 345 347 348 346 343 342 344 343 343
198 201 203 204 195 193 193 196 196 194 196 198 198 193 192 165 149 151 158 138 153 165 190 230 287 323 286 250 244 281 345 7 5 46 354 356 355 344 342 348 348 338 329 347 344 346 348 350 357 358 359 358 354 353
200 198 186 187 189 199 190 195 199 199 198 200 192 194 209 196 179 212 191 213 173 184 190 201 210 282 269 288 315 329 278 287 257 345 10 356 9 1 344 339 355 29 14 9 6 6 6 11 9 7 6 4 0 359
187 192 193 183 187 195 198 196 191 196 204 192 180 191 177 174 180 170 164 177 195 168 266 320 299 327 284 254 318 336 330 312 327 324 308 329 327 324 329 329 330 338 351 17 27 23 16 21 19 16 12 11 7 4
183 190 183 185 184 183 190 198 188 188 181 178 167 163 168 167 174 176 149 88 118 2 270 11 26 13 323 320 359 358 335 329 313 299 283 268 280 307 301 296 258 70 31 23 21 14 11 23 22 19 14 13 10 9
178 177 176 179 173 172 171 170 160 150 153 161 166 162 163 164 195 307 313 344 334 13 23 12 348 319 303 292 275 258 277 305 304 307 287 270 282 282 267 244 40 19 22 21 18 14 15 21 22 22 20 19 18 15
165 168 167 164 164 164 158 146 149 136 132 160 162 149 143 52 21 356 270 254 269 301 232 236 241 247 257 258 265 280 285 288 287 293 295 289 290 295 283 331 7 15 15 17 22 21 21 23 23 23 23 22 21 19
150 153 158 164 159 158 152 157 147 152 169 220 336 1 21 38 212 193 205 206 212 220 227 222 224 238 260 265 262 178 34 24 26 14 9 5 1 358 6 9 19 22 24 22 21 22 23 23 24 25 25 24 23 23